Kremmling, CO

10:08 AM MST on November 21, 2019 (GMT -0700)
Kremmling

Weather History for K20V - September, 2019

Change the Weather History Date:

Sunday, September 22, 2019

  Actual Average Record
Temperature  
Mean Temperature 47 °F -  
Max Temperature 70 °F - 82 °F (2007)
Min Temperature 24 °F - 23 °F (2011)
Degree Days  
Heating Degree Days 18    
Month to date heating degree days 166  
Cooling Degree Days 0    
Month to date cooling degree days 4  
Moisture  
Dew Point 24 °F    
Average Humidity 49    
Maximum Humidity 86    
Minimum Humidity 16    
Precipitation  
Precipitation 0.00 in - 0.39 in (2014)
Snow  
Snow 0.00 in - - ()
Snow Depth 0.00 in    
Sea Level Pressure  
Sea Level Pressure 30.25 in    
Wind  
Wind Speed 2 mph ()    
Max Wind Speed 16 mph    
Max Gust Speed 24 mph    
Visibility 10.0 miles    
Events      
T = Trace of Precipitation, MM = Missing Value Source: Averaged Metar Reports

Daily Weather History Graph

Daily Weather History Graph

Search for Another Location

Airport or City:

Astronomy

Sep. 22, 2019 Rise Set
Actual Time 6:52 AM MDT 7:02 PM MDT
Civil Twilight 6:25 AM MDT 7:29 PM MDT
Nautical Twilight 5:54 AM MDT 8:01 PM MDT
Astronomical Twilight 5:21 AM MDT 8:33 PM MDT
Moon No Moon Rise 3:01 PM MDT (9/22)
Length of Visible Light 13h 04m
Length of Day
12h 09m
Last Quarter, 43% of the Moon is Illuminated
Sep 22
Last Quarter
Sep 28
New
Oct 5
First Quarter
Oct 13
Full
Oct 21
Last Quarter

Hourly Weather History & Observations

Time (MDT) Temp. Windchill Dew Point Humidity Pressure Visibility Wind Dir Wind Speed Gust Speed Precip Events Conditions
12:06 AM 33.8 °F - 21.2 °F 60% 30.20 in 10.0 mi Calm Calm - N/A   Clear
12:30 AM 35.6 °F - 21.2 °F 56% 30.20 in 10.0 mi Calm Calm - N/A   Clear
12:47 AM 33.8 °F - 23.0 °F 65% 30.20 in 10.0 mi Calm Calm - N/A   Clear
1:06 AM 33.8 °F - 23.0 °F 65% 30.20 in 10.0 mi Calm Calm - N/A   Scattered Clouds
1:30 AM 33.8 °F - 26.6 °F 75% 30.21 in 10.0 mi Calm Calm - N/A   Mostly Cloudy
1:48 AM 33.8 °F - 24.8 °F 70% 30.20 in 10.0 mi Calm Calm - N/A   Scattered Clouds
2:06 AM 32.0 °F - 23.0 °F 69% 30.21 in 10.0 mi Calm Calm - N/A   Scattered Clouds
2:30 AM 32.0 °F - 24.8 °F 75% 30.22 in 10.0 mi Calm Calm - N/A   Clear
2:48 AM 30.2 °F - 19.4 °F 64% 30.22 in 10.0 mi Calm Calm - N/A   Clear
3:06 AM 30.2 °F - 21.2 °F 69% 30.22 in 10.0 mi Calm Calm - N/A   Clear
3:30 AM 30.2 °F - 21.2 °F 69% 30.22 in 10.0 mi Calm Calm - N/A   Clear
3:48 AM 30.2 °F - 21.2 °F 69% 30.22 in 10.0 mi Calm Calm - N/A   Clear
4:06 AM 30.2 °F - 23.0 °F 75% 30.23 in 10.0 mi Calm Calm - N/A   Clear
4:30 AM 30.2 °F - 23.0 °F 75% 30.24 in 10.0 mi Calm Calm - N/A   Clear
4:48 AM 28.4 °F - 21.2 °F 74% 30.24 in 10.0 mi Calm Calm - N/A   Clear
5:06 AM 26.6 °F - 21.2 °F 80% 30.24 in 10.0 mi Calm Calm - N/A   Clear
5:30 AM 26.6 °F - 19.4 °F 74% 30.25 in 10.0 mi Calm Calm - N/A   Clear
5:48 AM 26.6 °F - 23.0 °F 86% 30.25 in 10.0 mi Calm Calm - N/A   Clear
6:09 AM 26.6 °F - 21.2 °F 80% 30.26 in 10.0 mi Calm Calm - N/A   Clear
6:27 AM 24.8 °F - 21.2 °F 86% 30.27 in 10.0 mi Calm Calm - N/A   Clear
6:45 AM 26.6 °F - 21.2 °F 80% 30.27 in 10.0 mi Calm Calm - N/A   Clear
7:06 AM 26.6 °F - 21.2 °F 80% 30.27 in 10.0 mi Calm Calm - N/A   Clear
7:30 AM 26.6 °F - 21.2 °F 80% 30.28 in 10.0 mi Calm Calm - N/A   Clear
7:47 AM 30.2 °F - 23.0 °F 75% 30.29 in 10.0 mi Calm Calm - N/A   Clear
8:06 AM 30.2 °F - 23.0 °F 75% 30.29 in 10.0 mi Calm Calm - N/A   Clear
8:30 AM 33.8 °F - 23.0 °F 65% 30.30 in 10.0 mi Calm Calm - N/A   Clear
8:48 AM 33.8 °F - 23.0 °F 65% 30.30 in 10.0 mi Calm Calm - N/A   Clear
9:06 AM 37.4 °F - 24.8 °F 60% 30.30 in 10.0 mi Calm Calm - N/A   Clear
9:30 AM 39.2 °F - 23.0 °F 52% 30.30 in 10.0 mi Calm Calm - N/A   Clear
9:48 AM 41.0 °F - 24.8 °F 53% 30.30 in 10.0 mi Calm Calm - N/A   Clear
10:06 AM 46.4 °F 45.2 °F 26.6 °F 46% 30.29 in 10.0 mi NNE 3.5 mph - N/A   Clear
10:30 AM 50.0 °F - 26.6 °F 40% 30.29 in 10.0 mi NNE 4.6 mph - N/A   Clear
10:48 AM 50.0 °F - 26.6 °F 40% 30.29 in 10.0 mi Calm Calm - N/A   Clear
11:06 AM 53.6 °F - 26.6 °F 35% 30.28 in 10.0 mi Calm Calm - N/A   Clear
11:30 AM 55.4 °F - 26.6 °F 33% 30.27 in 10.0 mi Calm Calm - N/A   Clear
11:48 AM 55.4 °F - 26.6 °F 33% 30.26 in 10.0 mi SW 3.5 mph - N/A   Clear
12:06 PM 59.0 °F - 24.8 °F 27% 30.25 in 10.0 mi WSW 13.8 mph 18.4 mph N/A   Clear
12:30 PM 60.8 °F - 23.0 °F 23% 30.24 in 10.0 mi WSW 11.5 mph 18.4 mph N/A   Clear
12:48 PM 62.6 °F - 23.0 °F 22% 30.24 in 10.0 mi WSW 15.0 mph 20.7 mph N/A   Clear
1:05 PM 62.6 °F - 23.0 °F 22% 30.23 in 10.0 mi WSW 15.0 mph 24.2 mph N/A   Clear
1:28 PM 64.4 °F - 23.0 °F 21% 30.22 in 10.0 mi WSW 16.1 mph 19.6 mph N/A   Clear
1:46 PM 68.0 °F - 23.0 °F 18% 30.21 in 10.0 mi West 11.5 mph 21.9 mph N/A   Clear
2:05 PM 68.0 °F - 24.8 °F 20% 30.20 in 10.0 mi West 10.4 mph 18.4 mph N/A   Clear
2:29 PM 68.0 °F - 24.8 °F 20% 30.19 in 10.0 mi SW 10.4 mph 17.3 mph N/A   Clear
2:47 PM 68.0 °F - 23.0 °F 18% 30.19 in 10.0 mi WSW 12.7 mph 18.4 mph N/A   Clear
3:06 PM 68.0 °F - 23.0 °F 18% 30.18 in 10.0 mi SW 16.1 mph 21.9 mph N/A   Clear
3:30 PM 68.0 °F - 23.0 °F 18% 30.18 in 10.0 mi WSW 12.7 mph 18.4 mph N/A   Clear
3:48 PM 69.8 °F - 23.0 °F 17% 30.18 in 10.0 mi SW 11.5 mph 20.7 mph N/A   Clear
4:06 PM 69.8 °F - 23.0 °F 17% 30.19 in 10.0 mi West 9.2 mph - N/A   Clear
4:30 PM 69.8 °F - 21.2 °F 16% 30.19 in 10.0 mi SW 11.5 mph 19.6 mph N/A   Clear
4:48 PM 68.0 °F - 21.2 °F 17% 30.19 in 10.0 mi WNW 3.5 mph - N/A   Clear
5:06 PM 68.0 °F - 23.0 °F 18% 30.19 in 10.0 mi WSW 10.4 mph - N/A   Clear
5:30 PM 68.0 °F - 26.6 °F 21% 30.20 in 10.0 mi SSE 3.5 mph - N/A   Clear
5:48 PM 68.0 °F - 26.6 °F 21% 30.20 in 10.0 mi WNW 3.5 mph - N/A   Clear
6:06 PM 66.2 °F - 28.4 °F 24% 30.21 in 10.0 mi NW 9.2 mph - N/A   Clear
6:30 PM 62.6 °F - 26.6 °F 26% 30.22 in 10.0 mi North 11.5 mph 16.1 mph N/A   Clear
7:06 PM 59.0 °F - 26.6 °F 29% 30.23 in 10.0 mi NNW 9.2 mph - N/A   Clear
7:30 PM 59.0 °F - 26.6 °F 29% 30.24 in 10.0 mi NNW 9.2 mph - N/A   Clear
7:48 PM 55.4 °F - 24.8 °F 31% 30.25 in 10.0 mi NW 5.8 mph - N/A   Clear
8:06 PM 55.4 °F - 24.8 °F 31% 30.26 in 10.0 mi NNW 6.9 mph - N/A   Clear
8:30 PM 51.8 °F - 26.6 °F 38% 30.28 in 10.0 mi Calm Calm - N/A   Clear
8:48 PM 51.8 °F - 24.8 °F 35% 30.29 in 10.0 mi SSW 3.5 mph - N/A   Clear
9:06 PM 48.2 °F - 26.6 °F 43% 30.29 in 10.0 mi Calm Calm - N/A   Clear
9:30 PM 42.8 °F - 26.6 °F 53% 30.29 in 10.0 mi Calm Calm - N/A   Clear
9:48 PM 41.0 °F - 23.0 °F 49% 30.30 in 10.0 mi Calm Calm - N/A   Clear
10:06 PM 41.0 °F - 26.6 °F 57% 30.31 in 10.0 mi Calm Calm - N/A   Clear
10:30 PM 39.2 °F 37.0 °F 24.8 °F 56% 30.31 in 10.0 mi ENE 3.5 mph - N/A   Clear
10:48 PM 41.0 °F - 24.8 °F 53% 30.31 in 10.0 mi Calm Calm - N/A   Clear
11:06 PM 37.4 °F - 24.8 °F 60% 30.31 in 10.0 mi Calm Calm - N/A   Clear
11:30 PM 37.4 °F - 26.6 °F 65% 30.31 in 10.0 mi Calm Calm - N/A   Clear
11:48 PM 37.4 °F - 28.4 °F 70% 30.31 in 10.0 mi Calm Calm - N/A   Clear